This is the latest recevied weather packets stored in our database for station/object KD2DXJ. If no packets are shown the sender has not sent any weather packets the latest 10 day(s).
| Time | Temp. | Humidity | Pressure | Rain* | Wind** | Luminosity | Snow |
|---|---|---|---|---|---|---|---|
| 1778094148 | 7.22° C | 93% | 1008.7 hPa | 0 mm | - | 141 W/m² | - |
| 1778093846 | 6.67° C | 93% | 1008.9 hPa | 0 mm | - | 117 W/m² | - |
| 1778093542 | 7.22° C | 94% | 1008.9 hPa | 0 mm | - | 116 W/m² | - |
| 1778093240 | 6.67° C | 93% | 1008.8 hPa | 0 mm | - | 118 W/m² | - |
| 1778092937 | 6.67° C | 94% | 1009 hPa | 0 mm | - | 122 W/m² | - |
| 1778092633 | 6.67° C | 94% | 1008.8 hPa | 0 mm | - | 132 W/m² | - |
| 1778092329 | 6.67° C | 94% | 1008.9 hPa | 0 mm | - | 112 W/m² | - |
| 1778092026 | 6.67° C | 95% | 1008.9 hPa | 0 mm | - | 126 W/m² | - |
| 1778091723 | 6.67° C | 94% | 1009 hPa | 0 mm | - | 138 W/m² | - |
| 1778091421 | 6.67° C | 94% | 1008.8 hPa | 0 mm | - | 133 W/m² | - |
| 1778091118 | 6.67° C | 95% | 1009 hPa | 0 mm | - | 112 W/m² | - |
| 1778090815 | 6.67° C | 96% | 1009.1 hPa | 0 mm | - | 75 W/m² | - |
| 1778090511 | 6.67° C | 95% | 1008.9 hPa | 0 mm | - | 87 W/m² | - |
| 1778090208 | 6.67° C | 94% | 1008.7 hPa | 0 mm | - | 79 W/m² | - |
| 1778089905 | 6.67° C | 95% | 1008.8 hPa | 0 mm | - | 85 W/m² | - |
| 1778089603 | 6.67° C | 96% | 1008.8 hPa | 0 mm | - | 96 W/m² | - |
| 1778089299 | 6.67° C | 96% | 1008.8 hPa | 0 mm | - | 112 W/m² | - |
| 1778088998 | 6.67° C | 96% | 1008.8 hPa | 0 mm | - | 115 W/m² | - |
| 1778088694 | 6.67° C | 96% | 1008.7 hPa | 0 mm | - | 118 W/m² | - |
| 1778088391 | 6.67° C | 96% | 1008.9 hPa | 0 mm | - | 133 W/m² | - |
| 1778088087 | 6.67° C | 96% | 1008.9 hPa | 0 mm | - | 152 W/m² | - |
| 1778087785 | 6.67° C | 97% | 1009 hPa | 0 mm | - | 150 W/m² | - |
| 1778087483 | 6.67° C | 97% | 1009.1 hPa | 0 mm | - | 157 W/m² | - |
| 1778087180 | 6.67° C | 96% | 1009.1 hPa | 0 mm | - | 186 W/m² | - |
| 1778086877 | 6.67° C | 96% | 1009 hPa | 0 mm | - | 174 W/m² | - |
* Rain latest hour (hover to see other rain measurements)
** Current wind speed in m/s (hover to see current wind gust speed)